Time,TemperatureF,DewpointF,PressureIn,WindDirection,WindDirectionDegrees,WindSpeedMPH,WindSpeedGustMPH,Humidity,HourlyPrecipIn,Conditions,Clouds,dailyrainin,SoftwareType,DateUTC
2013-09-05 00:24:00,65.0,-99.9,-100.00,West,274,0.0,-999.0,-999,-99.99,,,-99.99,,2013-09-05 04:24:00,
2013-09-05 00:54:00,64.0,-99.9,-100.00,West,274,0.0,-999.0,-999,-99.99,,,-99.99,,2013-09-05 04:54:00,
2013-09-05 01:23:00,63.0,-99.9,-100.00,West,274,0.0,-999.0,-999,-99.99,,,-99.99,,2013-09-05 05:23:00,
2013-09-05 01:52:00,62.0,-99.9,-100.00,West,274,0.0,-999.0,-999,-99.99,,,-99.99,,2013-09-05 05:52:00,
2013-09-05 02:22:00,62.0,-99.9,-100.00,West,274,0.0,-999.0,-999,-99.99,,,-99.99,,2013-09-05 06:22:00,
2013-09-05 02:52:00,61.0,-99.9,-100.00,West,274,0.0,-999.0,-999,-99.99,,,-99.99,,2013-09-05 06:52:00,
2013-09-05 03:12:00,61.0,-99.9,-100.00,West,274,0.0,-999.0,-999,-99.99,,,-99.99,,2013-09-05 07:12:00,
2013-09-05 03:23:00,61.0,-99.9,-100.00,West,274,0.0,-999.0,-999,-99.99,,,-99.99,,2013-09-05 07:23:00,
2013-09-05 03:52:00,61.0,-99.9,-100.00,West,274,0.0,-999.0,-999,-99.99,,,-99.99,,2013-09-05 07:52:00,
2013-09-05 04:22:00,61.0,-99.9,-100.00,West,274,0.0,-999.0,-999,-99.99,,,-99.99,,2013-09-05 08:22:00,
2013-09-05 04:52:00,60.0,-99.9,-100.00,West,274,0.0,-999.0,-999,-99.99,,,-99.99,,2013-09-05 08:52:00,
2013-09-05 05:22:00,60.0,-99.9,-100.00,West,274,0.0,-999.0,-999,-99.99,,,-99.99,,2013-09-05 09:22:00,
2013-09-05 05:54:00,60.0,-99.9,-100.00,West,274,0.0,-999.0,-999,-99.99,,,-99.99,,2013-09-05 09:54:00,
2013-09-05 06:23:00,60.0,-99.9,-100.00,West,274,0.0,-999.0,-999,-99.99,,,-99.99,,2013-09-05 10:23:00,
2013-09-05 06:53:00,60.0,-99.9,-100.00,West,274,0.0,-999.0,-999,-99.99,,,-99.99,,2013-09-05 10:53:00,
2013-09-05 07:22:00,60.0,-99.9,-100.00,West,281,0.0,-999.0,-999,-99.99,,,-99.99,,2013-09-05 11:22:00,
2013-09-05 07:52:00,59.0,-99.9,-100.00,West,280,0.0,-999.0,-999,-99.99,,,-99.99,,2013-09-05 11:52:00,
2013-09-05 08:13:00,60.0,-99.9,-100.00,West,280,0.0,-999.0,-999,-99.99,,,-99.99,,2013-09-05 12:13:00,
2013-09-05 08:22:00,61.0,-99.9,-100.00,NNE,25,2.0,-999.0,-999,-99.99,,,-99.99,,2013-09-05 12:22:00,
2013-09-05 08:52:00,62.0,-99.9,-100.00,NNE,24,4.0,-999.0,-999,-99.99,,,-99.99,,2013-09-05 12:52:00,
2013-09-05 09:12:00,63.0,-99.9,-100.00,NNE,25,3.0,-999.0,-999,-99.99,,,-99.99,,2013-09-05 13:12:00,
2013-09-05 09:22:00,64.0,-99.9,-100.00,East,84,2.0,-999.0,-999,-99.99,,,-99.99,,2013-09-05 13:22:00,
2013-09-05 09:53:00,66.0,-99.9,-100.00,NNE,17,4.0,-999.0,-999,-99.99,,,-99.99,,2013-09-05 13:53:00,
2013-09-05 10:22:00,68.0,-99.9,-100.00,East,93,2.0,-999.0,-999,-99.99,,,-99.99,,2013-09-05 14:22:00,
2013-09-05 10:52:00,70.0,-99.9,-100.00,ENE,78,4.0,-999.0,-999,-99.99,,,-99.99,,2013-09-05 14:52:00,
2013-09-05 11:22:00,71.0,-99.9,-100.00,NNE,30,1.0,-999.0,-999,-99.99,,,-99.99,,2013-09-05 15:22:00,
2013-09-05 11:54:00,74.0,-99.9,-100.00,ENE,77,5.0,-999.0,-999,-99.99,,,-99.99,,2013-09-05 15:54:00,
2013-09-05 12:24:00,73.0,-99.9,-100.00,North,7,5.0,-999.0,-999,-99.99,,,-99.99,,2013-09-05 16:24:00,
2013-09-05 12:54:00,75.0,-99.9,-100.00,North,10,5.0,-999.0,-999,-99.99,,,-99.99,,2013-09-05 16:54:00,
2013-09-05 13:23:00,75.0,-99.9,-100.00,NNE,16,0.0,-999.0,-999,-99.99,,,-99.99,,2013-09-05 17:23:00,
2013-09-05 13:52:00,76.0,-99.9,-100.00,North,0,0.0,-999.0,-999,-99.99,,,-99.99,,2013-09-05 17:52:00,
2013-09-05 14:12:00,77.0,-99.9,-100.00,North,0,3.0,-999.0,-999,-99.99,,,-99.99,,2013-09-05 18:12:00,
2013-09-05 14:22:00,77.0,-99.9,-100.00,North,0,4.0,-999.0,-999,-99.99,,,-99.99,,2013-09-05 18:22:00,
2013-09-05 14:52:00,80.0,-99.9,-100.00,ESE,115,3.0,-999.0,-999,-99.99,,,-99.99,,2013-09-05 18:52:00,
2013-09-05 15:22:00,78.0,-99.9,-100.00,NNE,24,6.0,-999.0,-999,-99.99,,,-99.99,,2013-09-05 19:22:00,
2013-09-05 15:52:00,78.0,-99.9,-100.00,North,0,2.0,-999.0,-999,-99.99,,,-99.99,,2013-09-05 19:52:00,
2013-09-05 16:22:00,78.0,-99.9,-100.00,North,0,3.0,-999.0,-999,-99.99,,,-99.99,,2013-09-05 20:22:00,
2013-09-05 16:52:00,78.0,-99.9,-100.00,ENE,63,6.0,-999.0,-999,-99.99,,,-99.99,,2013-09-05 20:52:00,
2013-09-05 17:22:00,78.0,-99.9,-100.00,North,0,0.0,-999.0,-999,-99.99,,,-99.99,,2013-09-05 21:22:00,
2013-09-05 17:54:00,78.0,-99.9,-100.00,North,0,4.0,-999.0,-999,-99.99,,,-99.99,,2013-09-05 21:54:00,
2013-09-05 18:24:00,77.0,-99.9,-100.00,NNE,22,1.0,-999.0,-999,-99.99,,,-99.99,,2013-09-05 22:24:00,
2013-09-05 18:53:00,77.0,-99.9,-100.00,North,0,4.0,-999.0,-999,-99.99,,,-99.99,,2013-09-05 22:53:00,
2013-09-05 19:23:00,76.0,-99.9,-100.00,NNE,24,1.0,-999.0,-999,-99.99,,,-99.99,,2013-09-05 23:23:00,
2013-09-05 19:53:00,74.0,-99.9,-100.00,North,1,2.0,-999.0,-999,-99.99,,,-99.99,,2013-09-05 23:53:00,
2013-09-05 20:22:00,71.0,-99.9,-100.00,North,4,0.0,-999.0,-999,-99.99,,,-99.99,,2013-09-06 00:22:00,
2013-09-05 20:52:00,69.0,-99.9,-100.00,North,4,1.0,-999.0,-999,-99.99,,,-99.99,,2013-09-06 00:52:00,
2013-09-05 21:22:00,67.0,-99.9,-100.00,North,4,2.0,-999.0,-999,-99.99,,,-99.99,,2013-09-06 01:22:00,
2013-09-05 21:42:00,67.0,-99.9,-100.00,North,3,0.0,-999.0,-999,-99.99,,,-99.99,,2013-09-06 01:42:00,
2013-09-05 21:52:00,66.0,-99.9,-100.00,North,6,2.0,-999.0,-999,-99.99,,,-99.99,,2013-09-06 01:52:00,
2013-09-05 22:22:00,64.0,-99.9,-100.00,North,6,0.0,-999.0,-999,-99.99,,,-99.99,,2013-09-06 02:22:00,
2013-09-05 22:52:00,63.0,-99.9,-100.00,North,6,0.0,-999.0,-999,-99.99,,,-99.99,,2013-09-06 02:52:00,
2013-09-05 23:22:00,62.0,-99.9,-100.00,North,6,0.0,-999.0,-999,-99.99,,,-99.99,,2013-09-06 03:22:00,
2013-09-05 23:55:00,62.0,-99.9,-100.00,North,7,2.0,-999.0,-999,-99.99,,,-99.99,,2013-09-06 03:55:00,